GW2328 Weather Reports


Display with metric or nautical units.
time (UTC)temp
F
wind
direction
speed
MPH
gust
MPH
rain 1hr
in
rain 24hr
in
rain mn
in
humidity
%
barometer
mb
20260507124512 46 135 0.0 0.0 0.00 0.00 0.00 93 1021.0
20260507124010 45 135 0.0 0.0 0.00 0.00 0.00 93 1021.0
20260507123508 44 135 0.0 1.0 0.00 0.00 0.00 93 1020.9
20260507123004 44 130 0.0 1.0 0.00 0.00 0.00 94 1021.1
20260507122459 44 142 0.0 0.0 0.00 0.00 0.00 94 1020.9
20260507121955 43 143 0.0 0.0 0.00 0.00 0.00 94 1020.8
20260507121451 43 143 0.0 0.0 0.00 0.00 0.00 93 1021.0
20260507120947 42 143 0.0 0.0 0.00 0.00 0.00 93 1020.9
20260507120443 42 143 0.0 0.0 0.00 0.00 0.00 93 1020.9
20260507115941 42 143 0.0 0.0 0.00 0.00 0.00 93 1021.1
20260507115436 41 143 0.0 0.0 0.00 0.00 0.00 93 1020.9
20260507114932 41 143 0.0 0.0 0.00 0.00 0.00 93 1021.1
20260507114429 41 143 0.0 0.0 0.00 0.00 0.00 93 1021.1
20260507113926 40 143 0.0 0.0 0.00 0.00 0.00 93 1021.1
20260507113423 40 143 0.0 0.0 0.00 0.00 0.00 93 1021.1
20260507112921 40 143 0.0 0.0 0.00 0.00 0.00 93 1020.8
20260507112418 40 143 0.0 0.0 0.00 0.00 0.00 93 1021.0
20260507111915 40 143 0.0 0.0 0.00 0.00 0.00 93 1020.9
20260507111412 40 143 0.0 0.0 0.00 0.00 0.00 93 1020.8
20260507110908 40 143 0.0 0.0 0.00 0.00 0.00 93 1020.8
20260507110404 40 143 0.0 0.0 0.00 0.00 0.00 93 1020.5
20260507105902 40 143 0.0 0.0 0.00 0.00 0.00 93 1020.8
20260507105358 40 143 0.0 0.0 0.00 0.00 0.00 93 1020.5
20260507104855 40 143 0.0 0.0 0.00 0.00 0.00 93 1020.9
20260507104351 41 143 0.0 0.0 0.00 0.00 0.00 93 1020.8
20260507103847 41 143 0.0 0.0 0.00 0.00 0.00 93 1020.7
20260507103344 41 143 0.0 0.0 0.00 0.00 0.00 93 1020.5
20260507102841 41 143 0.0 0.0 0.00 0.00 0.00 93 1020.5
20260507102337 41 143 0.0 0.0 0.00 0.00 0.00 93 1020.5
20260507101833 41 143 0.0 0.0 0.00 0.00 0.00 93 1020.1
20260507101328 41 143 0.0 0.0 0.00 0.00 0.00 93 1020.2
20260507100825 42 143 0.0 0.0 0.00 0.00 0.00 93 1020.5
20260507100323 42 143 0.0 0.0 0.00 0.00 0.00 93 1020.4
20260507095821 42 143 0.0 0.0 0.00 0.00 0.00 93 1020.4
20260507095317 42 143 0.0 0.0 0.00 0.00 0.00 93 1020.4
20260507094815 42 143 0.0 0.0 0.00 0.00 0.00 93 1020.5
20260507094311 42 143 0.0 0.0 0.00 0.00 0.00 93 1020.2
20260507093808 42 143 0.0 0.0 0.00 0.00 0.00 94 1020.3
20260507093307 42 143 0.0 0.0 0.00 0.00 0.00 93 1020.1
20260507092804 42 143 0.0 0.0 0.00 0.00 0.00 94 1020.2
20260507092300 42 143 0.0 0.0 0.00 0.00 0.00 93 1020.2
20260507091757 42 143 0.0 0.0 0.00 0.00 0.00 93 1020.2
20260507091253 42 136 0.0 0.0 0.00 0.00 0.00 93 1020.3
20260507090748 42 136 0.0 0.0 0.00 0.00 0.00 93 1020.3
20260507090245 42 136 0.0 0.0 0.00 0.00 0.00 93 1020.3
20260507085742 42 136 0.0 0.0 0.00 0.00 0.00 93 1020.2
20260507085238 42 136 0.0 0.0 0.00 0.00 0.00 93 1020.1
20260507084736 42 136 0.0 0.0 0.00 0.00 0.00 93 1020.1
20260507084232 42 136 0.0 0.0 0.00 0.00 0.00 93 1020.1
20260507083730 42 136 0.0 0.0 0.00 0.00 0.00 93 1019.9
20260507083226 42 136 0.0 0.0 0.00 0.00 0.00 93 1019.7
20260507082722 42 136 0.0 0.0 0.00 0.00 0.00 93 1019.8
20260507082218 42 136 0.0 0.0 0.00 0.00 0.00 93 1019.9
20260507081715 42 136 0.0 0.0 0.00 0.00 0.00 93 1019.8
20260507081211 42 136 0.0 0.0 0.00 0.00 0.00 93 1020.0
20260507080708 43 136 0.0 0.0 0.00 0.00 0.00 92 1019.6
20260507080204 43 136 0.0 0.0 0.00 0.00 0.00 92 1019.7
20260507075659 43 135 0.0 0.0 0.00 0.00 0.00 92 1019.6
20260507075156 43 136 0.0 0.0 0.00 0.00 0.00 92 1019.6
20260507074652 43 136 0.0 0.0 0.00 0.00 0.00 92 1019.6
20260507074151 43 135 0.0 0.0 0.00 0.00 0.00 92 1019.6
20260507073647 43 135 0.0 0.0 0.00 0.00 0.00 92 1019.7
20260507073143 43 136 0.0 0.0 0.00 0.00 0.00 92 1019.5
20260507072641 44 136 0.0 0.0 0.00 0.00 0.00 92 1019.5
20260507072138 44 135 0.0 0.0 0.00 0.00 0.00 92 1019.4
20260507071636 44 136 0.0 0.0 0.00 0.00 0.00 92 1019.5
20260507071132 44 135 0.0 0.0 0.00 0.00 0.00 92 1019.5
20260507070629 44 136 0.0 0.0 0.00 0.00 0.00 92 1019.4
20260507070126 45 136 0.0 0.0 0.00 0.00 0.00 92 1019.5
20260507065622 45 136 0.0 0.0 0.00 0.00 0.00 91 1019.5
20260507065119 45 136 0.0 0.0 0.00 0.00 0.00 91 1019.6
20260507064617 45 136 0.0 0.0 0.00 0.00 0.00 91 1019.6
20260507064116 45 136 0.0 0.0 0.00 0.00 0.00 91 1019.8
20260507063613 45 136 0.0 0.0 0.00 0.00 0.00 91 1019.9
20260507063110 45 136 0.0 0.0 0.00 0.00 0.00 91 1019.6
20260507062606 45 136 0.0 0.0 0.00 0.00 0.00 91 1019.9
20260507062104 45 136 0.0 0.0 0.00 0.00 0.00 91 1019.8
20260507061601 45 136 0.0 0.0 0.00 0.00 0.00 91 1019.8
20260507061059 45 136 0.0 0.0 0.00 0.00 0.00 91 1019.9
20260507060557 45 136 0.0 0.0 0.00 0.00 0.00 90 1019.7
20260507060053 45 136 0.0 0.0 0.00 0.00 0.00 90 1019.5
20260507055548 45 136 0.0 0.0 0.00 0.00 0.00 90 1019.5
20260507055045 45 136 0.0 0.0 0.00 0.00 0.00 90 1019.7
20260507054541 45 136 0.0 0.0 0.00 0.00 0.00 90 1019.6
20260507054038 45 136 0.0 0.0 0.00 0.00 0.00 90 1020.0
20260507053536 45 136 0.0 0.0 0.00 0.00 0.00 90 1020.1
20260507053034 45 136 0.0 0.0 0.00 0.00 0.00 89 1020.1
20260507052532 45 136 0.0 0.0 0.00 0.00 0.00 89 1019.8
20260507052028 45 136 0.0 0.0 0.00 0.00 0.00 89 1019.8
20260507051526 46 136 0.0 0.0 0.00 0.00 0.00 89 1019.9
20260507051023 46 136 0.0 0.0 0.00 0.00 0.00 89 1019.9
20260507050519 46 136 0.0 0.0 0.00 0.00 0.00 88 1020.0
20260507050016 46 136 0.0 0.0 0.00 0.00 0.00 88 1019.9
20260507045512 46 136 0.0 0.0 0.00 0.00 0.00 88 1019.8
20260507045010 46 136 0.0 0.0 0.00 0.00 0.00 88 1019.5
20260507044506 46 135 0.0 0.0 0.00 0.00 0.00 88 1019.6
20260507044003 46 136 0.0 0.0 0.00 0.00 0.00 87 1019.5
20260507043459 46 135 0.0 0.0 0.00 0.00 0.00 87 1019.5
20260507042955 46 136 0.0 0.0 0.00 0.00 0.00 87 1019.9
20260507042452 46 136 0.0 0.0 0.00 0.00 0.00 87 1019.9
20260507041948 47 135 0.0 0.0 0.00 0.00 0.00 87 1019.9
20260507041445 47 135 0.0 0.0 0.00 0.00 0.00 87 1019.7
20260507040942 47 135 0.0 0.0 0.00 0.00 0.00 86 1020.0
20260507040437 47 135 0.0 0.0 0.00 0.00 0.00 86 1019.8
20260507035934 47 135 0.0 0.0 0.00 0.14 0.14 86 1019.7
20260507035431 47 135 0.0 0.0 0.00 0.14 0.14 86 1019.8
20260507034927 47 135 0.0 0.0 0.00 0.14 0.14 86 1020.1
20260507034424 48 135 0.0 0.0 0.00 0.14 0.14 85 1019.9
20260507033922 48 135 0.0 0.0 0.00 0.14 0.14 85 1019.8
20260507033420 48 135 0.0 0.0 0.00 0.14 0.14 85 1020.0
20260507032916 48 135 0.0 0.0 0.00 0.14 0.14 85 1020.1
20260507032414 48 135 0.0 0.0 0.00 0.14 0.14 84 1020.1
20260507031909 49 135 0.0 0.0 0.00 0.14 0.14 84 1019.7
20260507031406 49 135 0.0 0.0 0.00 0.14 0.14 84 1019.8
20260507030903 49 148 0.0 0.0 0.00 0.14 0.14 83 1019.8
20260507030400 49 148 0.0 0.0 0.00 0.14 0.14 83 1019.7
20260507025857 50 148 0.0 0.0 0.00 0.14 0.14 83 1019.8
20260507025355 50 148 0.0 0.0 0.00 0.14 0.14 82 1019.5
20260507024852 50 148 0.0 0.0 0.00 0.14 0.14 82 1019.9
20260507024349 50 148 0.0 0.0 0.00 0.14 0.14 81 1019.5
20260507023845 50 148 0.0 0.0 0.00 0.14 0.14 81 1019.5
20260507023342 51 148 0.0 0.0 0.00 0.14 0.14 80 1019.6
20260507022839 51 148 0.0 0.0 0.00 0.14 0.14 80 1019.4
20260507022336 51 148 0.0 0.0 0.00 0.14 0.14 79 1019.5
20260507021832 51 147 0.0 0.0 0.00 0.14 0.14 78 1019.4
20260507021327 52 148 0.0 0.0 0.00 0.14 0.14 78 1019.3
20260507020825 52 148 0.0 0.0 0.00 0.14 0.14 77 1019.2
20260507020322 52 147 0.0 0.0 0.00 0.14 0.14 77 1019.2
20260507015819 53 147 0.0 0.0 0.00 0.14 0.14 76 1019.0
20260507015317 53 148 0.0 0.0 0.00 0.14 0.14 75 1019.1
20260507014814 53 148 0.0 0.0 0.00 0.14 0.14 75 1018.8
20260507014310 54 147 0.0 0.0 0.00 0.14 0.14 74 1019.0
20260507013806 54 147 0.0 0.0 0.00 0.14 0.14 74 1018.7
20260507013304 54 147 0.0 0.0 0.00 0.14 0.14 73 1018.8
20260507012801 55 147 0.0 0.0 0.00 0.14 0.14 73 1018.9
20260507012256 55 148 0.0 0.0 0.00 0.14 0.14 72 1018.7
20260507011754 55 147 0.0 0.0 0.00 0.14 0.14 71 1018.7
20260507011251 55 147 0.0 0.0 0.00 0.14 0.14 70 1018.7
20260507010750 55 147 0.0 0.0 0.00 0.14 0.14 70 1018.8
20260507010246 55 147 0.0 0.0 0.00 0.14 0.14 69 1018.7
20260507005744 56 147 0.0 0.0 0.00 0.14 0.14 68 1018.6
20260507005240 56 147 0.0 0.0 0.00 0.14 0.14 68 1018.8
20260507004737 56 147 0.0 0.0 0.00 0.14 0.14 67 1018.5
20260507004235 56 148 0.0 0.0 0.00 0.14 0.14 66 1018.7
20260507003730 57 147 0.0 0.0 0.00 0.14 0.14 65 1018.4
20260507003226 57 147 0.0 0.0 0.00 0.14 0.14 63 1018.5
20260507002722 57 147 0.0 0.0 0.00 0.14 0.14 63 1018.6
20260507002218 57 147 0.0 0.0 0.00 0.14 0.14 62 1018.5
20260507001715 57 147 0.0 0.0 0.00 0.14 0.14 61 1018.4
20260507001213 57 147 0.0 0.0 0.00 0.14 0.14 61 1018.3
20260507000709 58 147 0.0 0.0 0.00 0.14 0.14 60 1018.4
20260507000205 58 147 0.0 0.0 0.00 0.14 0.14 60 1018.4
20260506235702 59 147 0.0 0.0 0.00 0.14 0.14 59 1018.4
20260506235157 59 148 0.0 0.0 0.00 0.14 0.14 58 1018.2
20260506234654 59 148 0.0 0.0 0.00 0.14 0.14 57 1018.2
20260506234151 59 148 0.0 0.0 0.00 0.14 0.14 56 1018.2
20260506233648 59 141 0.0 0.0 0.00 0.14 0.14 56 1018.2
20260506233145 59 133 0.0 1.0 0.00 0.14 0.14 57 1018.3
20260506232641 59 146 0.0 1.0 0.00 0.14 0.14 57 1018.3
20260506232137 59 149 0.0 1.0 0.00 0.14 0.14 57 1018.3
20260506231634 59 152 0.0 1.0 0.00 0.14 0.14 57 1018.4
20260506231133 59 137 0.0 1.0 0.00 0.14 0.14 57 1018.6
20260506230629 59 143 0.0 1.0 0.00 0.14 0.14 57 1018.5
20260506230126 59 157 1.0 2.0 0.00 0.14 0.14 58 1018.3
20260506225623 59 148 0.0 2.0 0.00 0.14 0.14 59 1018.3
20260506225119 59 136 0.0 1.0 0.00 0.14 0.14 60 1018.3
20260506224616 59 134 0.0 0.0 0.00 0.14 0.14 60 1018.2
20260506224112 60 141 0.0 0.0 0.00 0.14 0.14 60 1017.9
20260506223609 59 140 0.0 0.0 0.00 0.14 0.14 60 1018.1
20260506223105 59 143 0.0 2.0 0.00 0.14 0.14 59 1017.8
20260506222602 60 138 0.0 1.0 0.00 0.14 0.14 59 1017.7
20260506222058 60 142 2.0 2.0 0.00 0.14 0.14 58 1017.9
20260506221556 60 140 0.0 0.0 0.00 0.14 0.14 58 1017.7
20260506221054 60 132 0.0 0.0 0.00 0.14 0.14 58 1018.1
20260506220550 60 140 0.0 0.0 0.00 0.14 0.14 58 1018.1
20260506220045 60 145 0.0 1.0 0.00 0.14 0.14 56 1017.7
20260506215542 60 138 0.0 1.0 0.00 0.14 0.14 55 1017.9
20260506215038 60 138 0.0 1.0 0.00 0.14 0.14 55 1017.7
20260506214535 60 145 1.0 1.0 0.00 0.14 0.14 54 1017.9
20260506214032 61 159 2.0 2.0 0.00 0.14 0.14 53 1017.8
20260506213530 61 135 0.0 0.0 0.00 0.14 0.14 53 1017.7
20260506213027 61 116 0.0 1.0 0.00 0.14 0.14 54 1018.1
20260506212524 61 176 1.0 1.0 0.00 0.14 0.14 54 1018.4
20260506212019 61 148 0.0 1.0 0.00 0.14 0.14 54 1018.2
20260506211515 61 119 2.0 2.0 0.00 0.14 0.14 53 1018.3
20260506211013 61 137 0.0 1.0 0.00 0.14 0.14 52 1018.2
20260506210509 61 146 0.0 0.0 0.00 0.14 0.14 53 1018.1
20260506210006 61 134 1.0 1.0 0.00 0.14 0.14 53 1018.2
20260506205502 61 141 0.0 1.0 0.00 0.14 0.14 53 1018.0
20260506204958 61 138 0.0 1.0 0.00 0.14 0.14 53 1018.3
20260506204456 62 143 0.0 2.0 0.00 0.14 0.14 53 1018.4
20260506203953 62 143 1.0 1.0 0.00 0.14 0.14 52 1018.2
20260506203450 62 138 0.0 1.0 0.00 0.14 0.14 52 1018.3
20260506202947 63 152 1.0 1.0 0.00 0.14 0.14 52 1018.1
20260506202444 63 164 0.0 1.0 0.00 0.14 0.14 52 1018.1
20260506201940 63 137 0.0 2.0 0.00 0.14 0.14 52 1018.1
20260506201438 63 140 1.0 2.0 0.00 0.14 0.14 51 1018.1
20260506200934 63 211 4.0 5.0 0.00 0.14 0.14 51 1017.9
20260506200431 62 124 0.0 1.0 0.00 0.14 0.14 51 1018.0
20260506195927 63 166 1.0 2.0 0.00 0.14 0.14 51 1018.1
20260506195425 63 129 0.0 2.0 0.00 0.14 0.14 51 1018.1
20260506194921 62 154 0.0 1.0 0.00 0.14 0.14 51 1017.9
20260506194418 62 141 0.0 5.0 0.00 0.14 0.14 51 1018.5
20260506193915 62 209 3.0 3.0 0.00 0.14 0.14 51 1018.1
20260506193412 62 151 1.0 1.0 0.00 0.14 0.14 52 1018.4
20260506192908 62 157 1.0 2.0 0.00 0.14 0.14 52 1018.3
20260506192406 62 161 1.0 2.0 0.00 0.14 0.14 53 1018.3
20260506191902 62 120 1.0 2.0 0.00 0.14 0.14 53 1018.3
20260506191359 62 284 2.0 3.0 0.00 0.14 0.14 54 1018.2
20260506190856 61 136 0.0 1.0 0.00 0.14 0.14 53 1018.4
20260506190352 61 142 1.0 2.0 0.00 0.14 0.14 53 1018.3
20260506185849 62 160 3.0 3.0 0.00 0.14 0.14 54 1018.4
20260506185346 61 157 2.0 3.0 0.00 0.14 0.14 53 1018.2
20260506184843 61 186 2.0 2.0 0.00 0.14 0.14 53 1018.1
20260506184340 61 143 0.0 2.0 0.00 0.14 0.14 53 1018.2
20260506183837 62 69 1.0 2.0 0.00 0.14 0.14 54 1018.1
20260506183332 62 140 0.0 2.0 0.00 0.14 0.14 53 1017.9
20260506182830 62 113 1.0 1.0 0.00 0.14 0.14 55 1018.1
20260506182327 61 117 1.0 3.0 0.00 0.14 0.14 55 1017.9
20260506181825 61 177 3.0 5.0 0.00 0.14 0.14 55 1017.9
20260506181322 61 182 1.0 2.0 0.00 0.14 0.14 55 1017.8
20260506180819 61 265 3.0 5.0 0.00 0.14 0.14 56 1017.8
20260506180315 60 136 1.0 3.0 0.00 0.14 0.14 56 1017.8
20260506175812 60 136 1.0 3.0 0.00 0.14 0.14 56 1017.8
20260506175309 60 140 0.0 1.0 0.00 0.14 0.14 56 1018.1
20260506174806 60 185 2.0 3.0 0.00 0.14 0.14 57 1018.2
20260506174303 59 135 1.0 2.0 0.00 0.14 0.14 59 1017.9
20260506173801 59 166 1.0 2.0 0.00 0.14 0.14 58 1018.0
20260506173257 59 167 2.0 2.0 0.00 0.14 0.14 59 1018.1
20260506172754 59 54 3.0 3.0 0.00 0.14 0.14 60 1018.2
20260506172251 60 140 2.0 3.0 0.00 0.14 0.14 61 1018.2
20260506171749 59 144 1.0 1.0 0.00 0.14 0.14 61 1018.2
20260506171246 59 138 0.0 1.0 0.00 0.14 0.14 62 1018.5
20260506170743 58 176 1.0 2.0 0.00 0.14 0.14 62 1018.5
20260506170239 58 132 2.0 2.0 0.00 0.14 0.14 63 1018.7
20260506165738 60 140 0.0 2.0 0.00 0.14 0.14 65 1018.6
20260506165235 59 147 1.0 3.0 0.00 0.14 0.14 65 1018.7
20260506164732 58 31 3.0 3.0 0.00 0.14 0.14 65 1018.6
20260506164229 57 135 1.0 2.0 0.00 0.14 0.14 65 1018.7
20260506163726 57 138 0.0 2.0 0.00 0.14 0.14 66 1018.6
20260506163220 57 89 1.0 1.0 0.00 0.14 0.14 67 1018.7
20260506162717 57 139 1.0 2.0 0.00 0.14 0.14 67 1018.6
20260506162215 57 197 1.0 2.0 0.00 0.14 0.14 68 1018.6
20260506161712 57 136 1.0 5.0 0.00 0.14 0.14 69 1018.6
20260506161209 57 148 1.0 2.0 0.00 0.14 0.14 70 1018.5
20260506160706 57 264 3.0 5.0 0.00 0.14 0.14 71 1018.7
20260506160202 57 144 2.0 3.0 0.00 0.14 0.14 72 1018.9
20260506155701 57 205 1.0 2.0 0.00 0.14 0.14 73 1018.9
20260506155158 55 256 2.0 3.0 0.00 0.14 0.14 76 1018.5
20260506153306 55 213 2.0 3.0 0.00 0.14 0.14 77 1018.3
20260506152803 55 149 0.0 1.0 0.00 0.14 0.14 78 1018.1
20260506152300 55 137 0.0 1.0 0.00 0.14 0.14 79 1018.1
20260506151759 55 154 1.0 2.0 0.00 0.14 0.14 80 1018.1
20260506151255 54 168 0.0 1.0 0.00 0.14 0.14 81 1018.0
20260506150751 54 134 1.0 3.0 0.00 0.14 0.14 82 1017.9
20260506150249 53 142 1.0 1.0 0.00 0.14 0.14 83 1018.0
20260506145745 53 146 3.0 3.0 0.00 0.14 0.14 84 1018.1
20260506145242 53 134 2.0 2.0 0.00 0.14 0.14 85 1018.0
20260506144739 52 135 0.0 1.0 0.00 0.14 0.14 86 1018.1
20260506144236 52 149 2.0 2.0 0.00 0.14 0.14 87 1018.0
20260506143734 51 131 0.0 3.0 0.00 0.14 0.14 88 1018.0
20260506143231 51 151 0.0 1.0 0.00 0.14 0.14 88 1017.8
20260506142730 51 141 0.0 1.0 0.00 0.14 0.14 89 1017.7
20260506142227 51 170 0.0 2.0 0.00 0.14 0.14 89 1017.5
20260506141725 51 96 1.0 2.0 0.00 0.14 0.14 90 1017.7
20260506141223 51 170 1.0 3.0 0.00 0.14 0.14 91 1017.5
20260506140721 50 152 1.0 2.0 0.00 0.14 0.14 92 1017.7
20260506140217 50 141 2.0 3.0 0.00 0.14 0.14 93 1017.8
20260506135714 50 175 1.0 3.0 0.00 0.14 0.14 93 1017.6
20260506135210 50 143 0.0 2.0 0.00 0.14 0.14 94 1017.5
20260506134707 50 157 1.0 3.0 0.00 0.14 0.14 95 1017.5
20260506134203 50 142 1.0 1.0 0.00 0.14 0.14 96 1017.4
20260506133701 49 140 0.0 0.0 0.00 0.14 0.14 96 1017.4
20260506133157 49 148 0.0 2.0 0.00 0.14 0.14 96 1017.4
20260506132655 48 149 1.0 2.0 0.00 0.14 0.14 97 1017.2
20260506132151 48 152 1.0 2.0 0.00 0.14 0.14 97 1016.8
20260506131649 48 144 0.0 1.0 0.00 0.14 0.14 97 1016.6
20260506131145 47 139 0.0 1.0 0.00 0.14 0.14 97 1016.9
20260506130642 47 137 0.0 0.0 0.00 0.14 0.14 97 1017.4
20260506130139 47 139 0.0 1.0 0.00 0.14 0.14 98 1017.2
20260506125638 47 145 0.0 0.0 0.00 0.14 0.14 98 1016.9
20260506125135 46 133 0.0 0.0 0.00 0.14 0.14 98 1016.8